Regional Weather Roundup
Issued by NWS

Home | Current Version | Previous Version | Graphics & Text | Print | Product List | Glossary On
Versions: 1 2 3 4 5 6 7 8 9 10 11 12 13 14 15 16 17 18 19 20 21 22 23 24 25 26 27 28 29 30 31 32 33 34 35 36 37 38 39 40 41 42 43 44 45 46 47 48 49 50
000
ASUS45 KABQ 220710
RWRNM
NEW MEXICO REGIONAL WEATHER ROUNDUP
NATIONAL WEATHER SERVICE ALBUQUERQUE NM
1200 AM MST MON JAN 22 2018

NOTE: "FAIR" MEANS FEW OR NO CLOUDS BELOW 12,000 FEET AGL WITH NO
       SIGNIFICANT WEATHER OR OBSTRUCTIONS TO VISION.

      THIS PRODUCT IS RELEASED AS TWO VERSIONS.  ONE VERSION NEAR
      THE TOP OF THE HOUR CONTAINING PRELIMINARY DATA FROM ALBUQUERQUE
      AND OTHER STATIONS.  A FINAL VERSION WITH ADDITIONAL DATA IS
      ISSUED ABOUT 10 MINUTES AFTER THE HOUR.

NMZ501-503-504-510>518-220800-
NORTHWEST PLATEAU/NORTHCENTRAL MOUNTAINS

CITY           SKY/WX    TMP DP  RH WIND       PRES   REMARKS
FARMINGTON     FAIR      23  13  65 W18G24    30.11S WCI   9
LOS ALAMOS     FAIR      22   8  53 NE3       29.99S
SANTA FE       FAIR      17  12  80 NW8       30.01R WCI   7
TAOS           FAIR      12   9  87 SW12      30.00R WCI  -2
ANGEL FIRE     LGT SNOW  15  10  81 W13       29.91S WCI   0

$$
NMZ402-403-502-505>509-220800-
WESTCENTRAL MOUNTAINS/SOUTHWEST MOUNTAINS

CITY           SKY/WX    TMP DP  RH WIND       PRES   REMARKS
GALLUP         FAIR       7   3  84 CALM      30.17R
GRANTS         FAIR      15   6  66 N8        30.15S WCI   4
SILVER CITY    FAIR      21  13  71 NW10      30.17S WCI  10

$$
NMZ407-409-411-412-220800-
SOUTHERN DESERTS

CITY           SKY/WX    TMP DP  RH WIND       PRES   REMARKS
DEMING         FAIR      28  16  60 W6        30.19S WCI  22
LAS CRUCES     FAIR      25   8  48 W6        30.17S WCI  18
HOLLOMAN AFB   FAIR      27   7  42 N10       30.17R WCI  17
ALAMOGORDO     FAIR      30   7  37 NE9       30.15S WCI  22
T OR C         FAIR      33  10  38 NW16      30.14R WCI  23

$$
NMZ519>523-220800-
CENTRAL VALLEYS/CENTRAL HIGHLANDS

CITY           SKY/WX    TMP DP  RH WIND       PRES   REMARKS
ALBUQUERQUE    FAIR      30  10  43 N10       30.10S WCI  21
MORIARTY ARPT  FAIR      26  13  55 NW23G30   30.03R WCI  12
CLINES CORNERS FAIR      19  10  68 NW30G43   29.94F WCI   0
BELEN          FAIR      21   8  55 NW6       30.12R WCI  14
SOCORRO        FAIR      31   9  39 N10       30.13R WCI  22

$$
NMZ524>526-539-540-220800-
SOUTHCENTRAL MOUNTAINS

CITY           SKY/WX    TMP DP  RH WIND       PRES   REMARKS
RUIDOSO        FAIR      25   7  46 W18       30.05R WCI  11

$$
NMZ527>531-220800-
NORTHEAST HIGHLANDS/NORTHEAST PLAINS

CITY           SKY/WX    TMP DP  RH WIND       PRES   REMARKS
LAS VEGAS      FAIR      14  10  84 E5        29.91R WCI   6
RATON          FAIR      18  12  77 NE3       29.90S
CLAYTON        FAIR      24  16  71 NW22G28   29.88S WCI   9

$$
NMZ532>537-220800-
EASTCENTRAL PLAINS

CITY           SKY/WX    TMP DP  RH WIND       PRES   REMARKS
TUCUMCARI      FAIR      25  12  58 N6        29.95S WCI  18
CANNON AFB     CLOUDY    32  16  51 NW5       29.99F WCI  27
CLOVIS AIRPORT CLOUDY    30  17  58 N13       29.98F WCI  20

$$
NMZ028-029-538-220800-
SOUTHEAST PLAINS

CITY           SKY/WX    TMP DP  RH WIND       PRES   REMARKS
ROSWELL        FAIR      35  12  38 SW5       30.04F WCI  31
ARTESIA        FAIR      32   7  34 W10       30.07S WCI  24
CARLSBAD       FAIR      37  10  32 S3        30.07R
HOBBS          FAIR      34  10  37 NW10      30.04S WCI  26


$$




USA.gov is the U.S. government's official web portal to all federal, state and local government web resources and services.